Temp_Advection
nan nan nan nan nan nan nan nan nan nan nan nan nan nan nan nan nan nan nan nan nan nan nan nan nan nan nan nan nan nan nan nan nan nan nan nan nan nan nan nan nan nan nan nan nan nan nan nan nan nan nan nan nan nan
nan -0 -1 -1 -1 -0 -0 -0 -0 -0 -0 -1 -1 -1 -1 0 1 0 1 1 1 1 1 1 1 0 0 0 0 0 0 0 0 0 0 0 0 0 0 0 0 -0 0 -0 0 -0 -0 0 -0 0 0 -0 0 nan
nan -0 -1 -1 -0 -0 -0 -0 -1 -1 -1 -1 -1 -0 0 0 0 0 1 2 1 1 -0 0 0 0 0 0 1 0 0 0 0 0 0 0 -0 -0 0 0 0 0 0 -0 -0 0 0 0 0 -0 0 0 0 nan
nan -1 -1 -1 -1 -1 -1 -1 -1 -1 -1 -1 0 0 0 1 1 1 2 2 1 -0 -0 -0 0 0 0 0 0 0 -0 0 0 0 0 -0 -0 0 0 -0 -0 -0 0 -0 0 0 0 0 0 0 0 0 0 nan
nan -2 -3 -1 -1 -2 -1 0 -0 -1 -0 0 1 2 2 1 1 1 2 2 1 -0 -0 -0 -0 0 0 0 0 0 0 0 -0 0 -0 -0 0 0 0 -0 -0 0 0 0 -0 -0 0 -0 0 0 0 -0 0 nan
nan -1 -1 0 -0 0 0 0 0 0 1 1 1 2 2 2 2 2 -1 0 1 0 -0 -0 -0 0 0 0 0 0 0 0 -0 0 0 0 0 0 -0 -0 0 0 0 -0 -0 0 0 -0 0 0 0 0 0 nan
nan 1 1 1 1 1 1 1 1 1 1 2 1 1 1 1 1 0 -0 -0 0 0 -0 -0 -0 -0 0 0 0 0 0 0 0 0 -0 0 0 0 -0 -0 0 0 0 0 0 -0 -0 -0 0 0 0 0 0 nan
nan 0 1 1 1 1 1 1 1 1 0 0 -0 -0 0 0 1 0 -0 -0 0 0 -0 -0 -0 -0 0 0 0 0 0 -0 0 -0 0 0 -0 0 -0 0 0 0 0 0 0 0 -0 -0 -0 -0 -0 -0 -0 nan
nan 0 0 -0 0 0 0 0 0 0 -0 -0 -0 -0 1 -0 -0 -0 0 0 -0 -0 -0 -0 0 -0 -0 -0 -0 -0 0 -0 -0 -0 0 0 -0 -0 -0 0 0 0 0 0 -0 -0 -0 -0 -0 -0 -0 -0 -0 nan
nan -0 0 0 -0 -0 -0 0 0 -0 -0 -0 0 -0 -0 0 0 0 0 0 0 -0 0 -0 -0 0 0 -0 -0 -0 -0 0 0 0 0 -0 -0 0 0 0 0 0 0 -0 -0 -0 -0 -0 -0 -0 0 -0 -0 nan
nan 0 0 -0 -0 -0 0 0 -0 -0 0 -0 -0 -0 1 1 0 -0 -0 -0 -0 0 -0 0 0 -0 0 0 -0 0 0 0 0 0 -0 -0 0 0 0 0 0 -0 0 0 -0 -0 0 0 -0 -1 -0 0 0 nan
nan 0 -0 -0 -0 0 0 -0 -0 0 0 -0 -1 -1 0 -0 -0 -0 -0 0 -0 0 -0 0 -0 -0 -0 0 0 0 0 0 -0 0 -0 -0 -0 -0 -0 0 0 -0 -0 0 0 -0 0 0 1 0 -1 -1 -0 nan
nan 0 -0 0 0 0 0 0 0 -0 0 0 -0 -0 -0 -0 0 0 -0 -0 0 0 -0 0 0 -0 -0 0 0 0 0 0 -0 0 -0 0 -0 0 0 0 -0 -0 -0 -0 0 0 0 -0 0 1 -0 -0 0 nan
nan -0 -0 0 0 0 0 0 0 0 0 -0 -0 -0 -0 0 -0 -0 -0 -0 -0 0 0 -0 0 -0 -0 0 0 0 -0 0 0 -0 -0 0 0 0 0 0 -0 -1 -0 -0 -0 0 0 -0 -0 0 0 -0 0 nan
nan 0 -0 0 0 0 0 0 0 -0 -0 -0 -0 -0 -0 -0 -0 0 0 0 0 0 0 -0 0 0 -0 -0 -0 -0 0 -0 -0 -0 0 0 0 0 0 0 -0 -1 -1 -0 -0 0 -0 -0 -1 -1 0 0 -0 nan
nan 0 -0 0 0 0 0 0 0 -0 -1 -1 -0 -0 0 -0 -0 -0 0 0 -0 0 0 0 -0 0 0 -0 0 -0 -0 -0 -0 0 0 0 0 0 0 -0 -0 0 -0 -0 -0 -0 -0 -0 -0 -1 -1 -0 0 nan
nan -0 0 0 0 0 0 0 -0 -1 -1 -0 0 0 0 0 -0 -0 0 0 0 0 0 -0 0 0 -0 -0 -0 -0 -0 -0 -0 -0 0 -0 -0 -0 0 0 -0 -0 -0 -0 -0 -0 -0 -0 -0 -0 -0 -0 -0 nan
nan -0 0 0 0 0 0 -0 -0 -1 -0 0 0 -0 -0 0 0 0 0 0 0 0 0 -0 -0 0 -0 -0 -0 0 0 -0 -0 -0 -0 -1 -0 -0 -0 -0 -0 -0 -0 -0 -0 -0 -0 -0 -0 -0 -0 -0 -0 nan
nan -0 0 0 0 -0 -0 -0 -1 -0 0 -0 0 0 -0 -0 0 0 0 0 0 0 -0 0 -0 -0 0 0 -0 -0 -0 0 0 -0 -1 -1 -1 -1 -0 -0 -0 -0 -0 -1 -1 -1 -0 -0 -0 -0 -0 -0 -0 nan
nan 0 0 0 0 -0 -0 -0 -0 -0 -0 -0 0 -0 0 0 0 0 0 0 0 0 -0 -0 -0 -0 -0 0 0 -0 -0 -0 0 -0 -1 -1 -0 -0 -0 -1 -1 -0 -1 -1 -0 -0 -1 -0 -0 -0 -0 -0 -0 nan
nan 0 0 0 -0 -1 -1 -0 -0 -0 0 -0 -0 -0 0 0 -0 -0 -0 0 0 -0 -0 0 -0 -0 -0 -0 0 0 0 0 0 0 -0 -1 -1 -0 -0 0 -0 -0 -0 -0 -1 -0 -0 -0 -0 -0 -0 -0 -0 nan
nan 0 -0 -0 -0 -0 -1 -0 -0 -0 -0 -0 -0 -0 0 -0 -0 -0 -0 -0 -0 -0 0 -0 -0 -0 -0 -0 0 0 0 0 -0 0 -0 -0 -0 -0 -0 0 -0 -0 -0 0 0 -0 -0 -0 -0 -0 -0 -0 -0 nan
nan -0 -0 -0 -0 -1 -0 -0 -0 0 -0 -0 0 -0 -0 -0 -0 -0 -0 -0 -0 0 -0 -0 -0 -0 -0 -0 -0 0 0 0 0 0 0 -0 -0 -0 -0 -0 0 -0 -1 -0 0 -0 -0 -0 -0 -0 -0 -0 -0 nan
nan -0 -0 -0 -1 -0 -0 -0 -0 -0 -0 0 0 -0 -0 -0 0 -0 -0 0 0 -0 -0 -0 -0 -1 -1 -0 -0 -0 0 0 -0 -0 0 0 -0 -0 -0 -0 -0 -0 -0 -0 -0 -0 -0 -0 -0 -0 -0 -0 -0 nan
nan -1 -0 -0 -0 -0 -0 -0 -0 0 -0 -0 -0 -0 -0 0 -0 -0 -0 -0 -0 -0 -0 -0 -0 0 -0 -1 -0 -0 0 0 0 -1 0 0 -0 -0 -0 -0 -0 -0 -0 -0 -0 -0 -0 -0 -0 -0 0 0 0 nan
nan -0 -0 -0 -0 -0 -0 -0 -0 -0 -0 0 -0 0 -0 -0 -0 0 -0 -0 -0 -0 0 0 -0 -0 0 0 -0 -0 0 0 0 -0 -0 0 0 0 -0 -0 -0 -0 -0 -0 -0 0 -0 -0 -0 -0 -0 -0 0 nan
nan -0 -0 -0 -0 0 -0 -0 0 0 -0 -0 -0 0 0 0 -0 -0 -0 -0 -0 -0 0 0 0 0 -0 0 0 0 0 0 0 0 -0 0 0 0 0 0 -0 0 0 0 -0 -0 -0 -0 -0 -0 -0 -0 0 nan
nan -0 -0 -0 -0 -0 -0 0 0 -0 -0 -0 -0 0 0 0 -0 -0 -0 -0 0 -0 0 0 0 0 0 0 0 0 0 0 0 0 -0 -0 0 0 0 0 0 0 0 0 -0 -0 -0 -0 -0 -0 -0 -1 0 nan
nan -0 -0 -0 -0 -0 -0 0 -0 -0 -0 -0 -0 -0 -0 -0 -0 -0 -0 -0 0 -0 -0 -0 0 0 0 0 0 0 0 0 -0 -0 -0 0 0 0 0 0 0 0 0 0 0 0 0 0 -0 -0 -0 -0 -0 nan
nan -0 -0 -0 0 0 -0 -0 -0 -0 0 0 -0 -0 -0 -0 -0 -0 -0 -0 -0 0 0 0 0 0 0 0 0 -0 0 0 0 0 -0 -0 0 0 0 0 0 0 -0 -0 -0 0 1 0 0 0 -0 -0 1 nan
nan -0 -0 -0 -0 -0 0 -0 0 0 0 0 -0 -0 -0 -0 -0 -0 -0 0 0 0 0 0 0 0 0 0 -0 0 0 0 0 0 0 0 0 0 0 0 0 0 0 -0 -0 -0 -0 -0 -0 0 0 -0 0 nan
nan -0 -0 -0 0 0 -0 -0 -0 -0 0 -0 -0 -0 -0 -0 -0 -0 -0 -0 0 -0 -0 -0 -0 0 0 0 0 0 0 0 0 0 0 0 -0 -0 0 0 0 0 0 0 -0 0 0 -1 -1 -0 -0 -1 -0 nan
nan nan nan nan nan nan nan nan nan nan nan nan nan nan nan nan nan nan nan nan nan nan nan nan nan nan nan nan nan nan nan nan nan nan nan nan nan nan nan nan nan nan nan nan nan nan nan nan nan nan nan nan nan nan
Wind_Speed
35 36 36 37 36 37 40 39 37 34 34 30 30 32 33 36 35 33 44 40 34 15 13 19 16 7 9 13 5 8 5 5 5 5 4 4 5 7 6 7 5 9 5 6 8 6 10 4 4 5 7 14 11 8
36 36 36 38 38 37 37 38 36 35 32 32 31 31 32 32 35 37 36 36 38 18 7 17 17 17 15 9 10 14 2 4 7 5 4 2 4 3 7 5 3 5 6 3 3 1 4 4 7 8 8 11 7 4
35 37 39 39 40 41 39 39 38 36 32 31 31 30 32 32 32 34 38 35 33 15 5 8 6 10 12 12 14 6 4 4 3 3 1 1 4 2 5 7 4 3 2 3 3 7 7 6 8 8 6 5 2 1
36 38 41 44 43 41 41 38 34 32 32 31 28 29 31 32 32 33 36 36 33 11 4 3 7 6 7 9 10 11 4 9 6 4 2 2 3 3 2 2 4 2 5 5 8 3 7 8 7 8 3 2 4 5
32 43 47 42 39 36 36 33 31 29 28 25 26 33 34 34 31 32 24 29 21 8 5 7 7 5 6 7 7 8 7 7 5 4 3 3 1 2 0 2 6 7 5 5 7 2 6 2 8 9 6 6 6 6
35 22 19 17 15 16 17 24 30 25 27 36 41 36 33 34 37 28 7 16 16 15 7 4 3 4 6 8 8 6 9 4 5 3 3 3 3 4 3 5 3 6 7 3 4 2 2 3 4 8 10 11 10 10
18 11 21 25 31 29 28 28 31 35 39 41 31 29 31 30 25 11 8 20 17 11 5 5 4 3 8 7 5 4 6 4 3 2 4 3 4 4 3 9 2 5 4 3 2 3 6 9 9 9 8 13 14 16
14 15 21 25 27 27 28 30 35 36 35 36 36 34 29 21 20 18 23 21 17 8 5 3 3 5 8 3 2 2 2 2 1 3 2 3 2 3 4 6 3 3 4 3 3 2 5 9 12 14 12 13 15 18
19 23 31 30 32 32 31 30 29 29 28 28 28 26 21 15 7 13 19 16 13 4 5 3 5 4 8 4 3 3 2 2 1 2 3 3 4 5 4 4 7 5 3 1 4 7 10 12 13 15 16 18 19 22
26 25 24 25 28 29 30 30 32 33 33 31 24 6 5 8 24 18 5 3 2 3 3 2 3 3 5 5 3 4 1 1 2 2 3 3 5 10 4 4 8 5 1 5 9 11 11 17 16 18 20 21 23 25
29 24 23 24 27 29 29 29 28 27 26 11 4 5 19 20 5 4 3 3 2 2 2 3 2 5 2 3 3 1 2 1 2 2 3 3 3 5 10 8 4 1 4 7 11 15 17 19 24 27 29 27 27 27
28 24 24 23 25 24 24 24 24 18 8 5 11 19 12 3 4 4 2 1 1 2 3 3 4 4 3 3 3 2 2 2 2 2 3 3 3 12 11 6 1 5 10 14 16 20 22 24 24 27 30 31 32 30
28 27 23 21 22 20 22 21 14 12 23 19 6 4 2 3 3 3 5 2 2 5 5 5 3 3 3 3 4 2 4 2 1 3 3 2 8 11 8 4 9 12 16 20 23 23 25 27 27 28 30 31 30 30
29 26 23 21 20 21 17 13 19 14 4 3 3 4 2 2 2 2 2 3 3 5 9 8 5 2 2 2 1 3 2 2 3 3 4 3 11 8 5 8 13 20 23 26 28 28 28 28 30 30 29 28 27 28
30 31 23 20 18 17 17 14 8 5 4 4 3 3 2 3 3 3 5 4 5 7 6 6 5 2 2 2 0 2 2 4 4 3 1 7 8 3 7 10 16 24 28 28 29 29 29 30 30 31 28 25 25 27
29 24 19 18 15 13 11 8 5 6 4 4 5 4 4 4 3 3 6 7 7 6 5 4 2 2 2 1 3 5 2 4 1 1 2 3 4 9 14 20 25 28 28 29 29 29 30 31 29 29 27 25 24 23
23 19 16 13 12 9 8 8 5 5 4 4 4 6 4 7 6 4 4 3 7 2 1 1 2 1 2 2 3 3 3 2 3 2 4 8 15 21 25 27 27 27 29 29 29 29 30 28 25 25 26 25 25 24
23 19 15 13 10 8 7 5 4 5 6 5 3 4 5 5 6 4 3 7 3 1 2 1 4 3 3 3 2 0 3 5 8 11 16 21 24 28 28 28 27 28 28 28 26 27 27 24 23 23 24 25 23 18
19 15 12 11 9 4 3 4 4 5 4 4 5 5 5 5 6 5 4 4 3 4 3 2 2 2 3 1 4 7 10 12 17 22 27 30 30 28 26 27 26 25 24 25 26 25 22 20 19 20 21 19 17 16
13 12 9 7 4 3 4 4 4 5 3 2 4 3 3 3 5 3 1 1 2 1 1 2 2 1 2 6 9 14 17 19 20 23 30 23 17 25 28 26 25 24 23 23 23 18 18 19 17 17 18 14 13 10
10 8 6 5 8 6 5 4 5 4 3 3 4 3 2 4 2 1 1 0 1 2 2 2 3 6 13 19 22 23 24 23 22 22 29 32 29 26 26 23 21 18 19 20 19 19 17 16 17 14 15 12 10 6
9 7 7 6 5 4 6 7 4 3 3 3 2 3 2 1 1 0 3 1 2 1 2 4 10 18 24 26 25 23 23 22 23 24 22 22 24 23 23 23 20 21 21 20 17 16 16 15 13 13 12 8 5 6
5 5 5 5 4 4 3 4 3 3 1 1 1 2 2 1 1 3 1 2 2 2 5 13 20 23 24 24 21 19 16 17 19 19 20 21 21 22 20 18 18 20 20 16 13 13 13 10 10 8 6 6 3 2
4 3 4 4 6 3 2 3 3 3 2 2 1 1 1 2 4 0 1 1 1 5 11 19 23 25 24 21 20 20 18 17 19 19 18 18 18 17 16 18 17 14 14 12 11 10 9 8 8 6 3 1 4 8
3 7 4 5 5 3 3 2 3 2 2 2 1 1 1 3 1 1 1 2 6 11 18 23 22 21 21 25 23 22 19 17 18 20 17 14 14 15 16 14 12 10 7 8 7 6 5 3 2 2 4 6 10 13
5 6 4 3 3 2 2 2 2 2 1 1 2 1 2 1 1 1 2 6 11 18 24 23 23 26 25 22 23 23 22 17 16 18 13 7 9 13 14 13 10 7 6 3 2 0 2 7 12 13 14 13 15 20
3 3 4 4 2 2 3 3 2 0 2 2 1 2 1 2 1 2 5 10 19 22 19 18 18 20 22 22 20 19 19 16 14 14 9 8 8 9 8 8 7 4 2 2 4 7 10 13 13 14 16 18 21 24
4 3 2 3 3 3 2 1 1 2 1 2 2 1 1 1 2 5 7 15 20 17 16 15 15 16 16 15 17 18 18 14 11 6 4 3 3 4 4 5 6 5 6 6 7 10 11 12 16 19 23 27 29 30
4 3 2 3 2 3 3 2 1 1 2 2 3 2 2 2 5 8 12 18 16 16 16 17 17 16 16 14 15 18 19 16 13 10 8 8 7 7 7 7 9 10 11 11 10 10 14 19 23 27 30 33 34 34
4 5 2 2 2 2 1 2 1 2 3 3 4 4 4 3 5 7 14 17 15 16 15 16 17 18 20 21 20 22 23 18 15 13 11 11 10 8 9 12 16 18 19 21 23 22 24 27 30 31 32 33 32 33
3 3 2 2 2 1 3 4 3 2 2 2 2 2 3 4 3 7 16 16 14 14 15 16 16 19 19 20 22 23 24 20 16 14 14 13 11 12 14 17 19 21 23 24 25 27 29 30 29 30 31 32 32 31
3 3 2 1 1 3 3 4 2 1 2 2 2 4 3 2 2 7 17 18 15 14 14 15 17 18 17 17 15 15 15 18 18 15 14 14 15 15 15 17 19 22 24 26 27 26 26 28 29 29 30 30 30 29
2 3 2 1 1 2 4 4 3 1 2 2 3 4 4 2 2 9 13 17 17 16 14 12 13 15 16 16 14 15 16 18 18 17 18 20 20 20 20 21 22 20 22 24 25 25 25 27 28 28 28 28 27 27
Wind_Direction
261 266 264 258 260 258 258 262 262 261 264 242 238 234 229 224 221 223 222 227 213 217 228 205 213 180 167 194 190 133 138 188 175 228 228 182 236 201 253 233 196 203 209 213 229 253 248 154 133 223 106 125 131 115
262 264 263 260 261 260 258 260 260 262 251 242 235 231 223 222 223 218 212 212 207 203 197 199 206 205 190 182 192 178 186 153 199 218 212 215 210 185 230 241 156 236 235 292 288 352 88 100 101 116 138 144 138 113
265 264 262 259 259 259 259 261 259 253 240 238 230 229 224 219 217 219 218 211 195 187 151 169 178 196 198 199 205 162 199 170 175 158 83 85 240 244 202 235 226 223 179 232 294 164 166 144 143 132 118 132 143 324
265 265 263 260 260 260 260 255 250 241 238 231 225 224 216 211 215 215 213 198 190 149 121 148 163 162 181 200 212 216 164 191 147 161 194 212 223 215 248 348 258 11 148 236 257 226 202 225 211 190 179 234 286 290
268 271 261 255 259 255 247 240 239 232 227 213 200 199 199 201 201 197 200 181 193 156 133 137 145 160 172 173 182 201 186 173 159 155 199 219 104 182 229 288 239 189 203 216 259 64 223 96 227 205 253 276 274 276
274 306 241 217 213 222 203 194 187 184 182 169 152 159 176 194 187 182 106 136 131 138 114 140 134 148 166 180 181 189 184 174 182 190 203 208 220 201 236 252 276 214 244 277 280 143 247 281 225 244 265 267 262 270
293 138 177 157 159 155 158 165 163 152 148 159 148 146 140 135 142 129 141 158 140 115 100 119 134 146 149 135 137 133 189 213 188 223 236 218 186 208 251 249 191 208 209 198 219 268 273 272 275 281 275 275 274 275
178 162 137 128 130 128 128 129 134 140 135 125 124 121 119 110 101 107 128 140 139 109 105 125 104 152 166 130 122 149 140 148 132 210 198 215 168 218 253 244 181 193 193 191 173 275 275 284 289 290 289 285 282 282
137 123 128 118 117 117 119 121 121 122 119 115 113 116 117 119 81 115 134 144 152 130 120 152 157 153 159 131 127 134 155 196 232 235 214 205 195 224 264 201 188 173 170 180 292 294 289 284 287 291 294 291 287 286
139 132 127 128 126 124 124 125 125 124 124 125 123 103 85 106 118 114 102 117 121 62 84 99 110 122 171 156 122 140 187 217 237 181 149 233 248 231 178 162 153 158 254 309 316 310 308 297 294 290 288 287 285 285
140 137 130 127 126 127 128 130 132 133 132 123 78 67 124 128 101 75 77 52 34 97 74 104 126 131 114 169 127 145 166 161 241 152 242 239 250 140 163 150 149 236 302 307 302 298 295 289 289 292 292 291 288 286
142 136 131 127 130 132 135 136 139 137 120 113 120 119 120 93 73 86 48 115 215 144 109 143 111 100 117 110 122 153 174 192 243 125 246 248 121 147 154 158 239 312 319 319 315 306 302 296 294 291 292 294 293 291
145 142 137 136 134 133 138 140 131 129 119 112 89 91 53 22 87 183 168 164 175 161 149 151 122 106 104 96 96 166 184 211 100 224 239 271 156 175 192 258 302 312 318 320 319 313 307 304 303 299 298 297 297 293
148 138 139 138 131 133 131 133 138 127 90 77 78 65 13 115 67 63 60 90 96 129 135 127 100 92 105 89 104 186 102 226 237 235 237 181 178 174 224 290 311 320 321 320 316 313 309 308 308 306 303 302 298 293
137 143 139 131 129 129 133 128 118 115 72 74 54 73 66 96 70 88 102 103 107 130 122 107 87 103 87 107 22 129 189 236 231 237 44 169 166 233 300 307 309 312 314 312 312 311 311 311 309 307 307 304 298 295
135 135 133 139 139 142 142 137 114 71 62 60 63 98 108 125 106 105 110 116 120 119 97 72 102 131 132 130 189 215 230 231 231 216 179 184 262 297 307 309 309 309 309 309 309 310 310 311 309 307 306 305 305 303
146 122 133 138 140 138 132 130 70 58 65 54 60 70 78 79 99 103 109 131 143 86 102 141 179 162 98 215 242 210 226 343 356 313 282 293 297 302 307 309 309 308 308 306 308 309 309 309 310 308 310 316 312 302
129 128 136 136 132 131 117 62 72 71 68 65 84 62 68 85 106 89 105 145 112 104 125 91 130 196 220 224 227 276 310 312 302 298 295 296 299 305 308 306 305 305 304 305 306 310 312 313 312 315 318 312 311 316
126 131 134 139 142 110 69 49 53 85 73 80 107 94 80 93 101 114 118 142 119 126 117 115 234 233 249 308 315 314 307 303 300 298 296 301 305 306 305 305 305 306 307 307 309 308 307 310 313 318 314 318 315 314
122 125 124 132 139 81 78 54 63 83 92 107 105 92 89 109 122 93 95 141 115 138 226 224 242 318 308 308 301 297 296 296 294 294 293 297 293 295 301 306 307 309 306 308 310 307 309 313 311 316 323 319 319 326
119 111 109 102 71 67 78 66 61 81 101 100 110 94 77 113 93 85 37 67 177 224 253 281 308 311 311 309 306 304 299 297 286 279 283 293 303 304 305 305 303 299 297 303 305 307 309 313 317 321 329 324 321 317
98 90 79 62 63 66 65 45 87 86 84 109 87 82 84 93 70 86 332 209 242 262 260 311 321 323 318 317 314 306 301 296 293 291 289 289 292 297 301 303 302 301 304 306 308 307 312 317 325 318 325 339 11 19
89 62 53 44 73 51 57 47 59 49 75 65 70 121 67 57 350 332 254 241 261 275 311 323 323 323 320 321 320 318 315 307 297 294 294 293 294 296 298 303 305 303 304 309 313 309 310 320 322 328 326 322 326 40
78 60 43 47 41 79 62 43 49 60 63 39 21 96 63 349 336 238 265 245 289 325 327 326 331 329 331 331 326 326 328 318 306 302 303 299 298 301 306 306 306 303 302 305 309 308 306 305 312 322 334 53 105 108
71 16 30 33 38 51 45 37 11 54 67 16 4 60 58 347 291 301 320 18 338 332 332 335 335 330 324 328 332 333 338 328 314 308 315 306 300 310 320 319 316 316 303 300 299 304 310 324 4 82 110 119 122 119
69 15 41 17 14 38 27 59 36 29 39 44 44 330 350 294 305 1 24 338 335 336 337 336 333 330 331 333 329 334 336 332 319 308 318 301 313 314 316 323 333 334 323 293 282 176 102 101 101 102 104 110 117 124
77 34 45 51 54 80 95 76 78 73 63 30 6 346 347 33 338 50 339 339 338 338 338 337 333 331 329 334 340 342 344 339 321 312 299 293 313 330 328 327 332 346 21 103 137 142 142 141 139 137 132 131 131 130
73 47 57 1 41 46 115 62 46 58 24 349 302 344 118 15 13 341 334 338 340 341 345 350 350 350 349 348 350 352 359 358 357 354 359 6 353 357 25 44 53 73 84 94 123 135 139 138 135 132 130 127 125 125
53 18 26 31 59 52 48 40 59 52 352 358 321 333 5 326 329 339 346 348 350 353 356 359 7 11 17 21 18 20 18 16 27 40 50 54 62 60 67 81 87 91 95 101 104 115 124 127 126 125 122 120 118 118
17 13 37 38 68 54 21 27 318 311 307 297 296 304 316 331 336 352 354 356 1 5 8 11 10 15 19 21 27 33 27 23 34 42 53 58 60 68 93 103 105 107 110 112 115 122 129 127 125 122 119 119 120 122
0 11 37 51 85 65 342 334 336 336 340 349 326 303 303 322 353 8 5 7 9 10 16 23 26 25 24 23 24 27 25 27 35 46 56 67 78 91 104 111 115 115 115 118 121 124 124 122 121 124 125 123 122 121
15 36 22 63 63 3 20 12 14 21 8 27 13 1 356 14 22 2 7 13 20 26 26 25 29 30 31 33 36 42 39 38 45 57 69 78 85 92 100 107 112 115 117 119 121 124 128 128 128 127 125 123 123 122
15 21 33 25 45 31 355 355 21 16 51 44 28 24 27 47 26 11 12 12 14 17 22 29 32 31 33 33 36 44 50 58 54 64 74 81 86 92 97 102 106 110 118 121 123 126 128 127 126 125 124 124 123 122
Height
1402 1401 1401 1403 1404 1404 1407 1408 1410 1410 1412 1416 1418 1422 1425 1430 1435 1439 1438 1441 1445 1449 1450 1453 1456 1457 1458 1461 1461 1468 1474 1473 1477 1472 1466 1463 1460 1460 1459 1454 1460 1461 1464 1462 1462 1460 1453 1460 1462 1460 1462 1465 1469 1471
1392 1392 1391 1391 1393 1393 1395 1397 1398 1399 1402 1404 1409 1413 1415 1420 1425 1428 1430 1432 1438 1444 1447 1449 1450 1451 1454 1456 1459 1462 1462 1462 1463 1466 1465 1462 1462 1463 1456 1457 1462 1464 1458 1456 1456 1455 1462 1461 1462 1464 1465 1467 1470 1471
1381 1380 1380 1380 1380 1381 1383 1384 1386 1388 1391 1396 1399 1405 1405 1410 1416 1420 1422 1427 1434 1440 1445 1446 1448 1450 1450 1452 1455 1459 1461 1462 1463 1465 1465 1466 1464 1461 1460 1458 1456 1462 1463 1463 1462 1460 1462 1463 1464 1465 1467 1468 1470 1471
1370 1369 1368 1367 1367 1368 1369 1371 1375 1378 1382 1386 1391 1394 1399 1403 1408 1414 1418 1420 1427 1434 1439 1447 1447 1448 1449 1451 1454 1455 1457 1459 1462 1465 1466 1465 1464 1463 1458 1461 1459 1460 1464 1460 1458 1462 1462 1463 1464 1465 1466 1467 1468 1469
1361 1356 1350 1351 1352 1352 1355 1360 1365 1369 1373 1378 1382 1387 1392 1397 1404 1411 1416 1418 1421 1431 1438 1445 1447 1449 1449 1451 1453 1455 1457 1459 1461 1463 1464 1463 1462 1464 1466 1466 1458 1459 1458 1460 1454 1455 1458 1460 1462 1464 1465 1466 1466 1467
1352 1339 1339 1341 1345 1344 1344 1351 1358 1363 1369 1372 1376 1383 1389 1395 1400 1407 1419 1422 1424 1428 1434 1441 1447 1447 1449 1450 1453 1454 1457 1459 1460 1461 1462 1462 1462 1464 1462 1453 1452 1454 1456 1457 1457 1459 1460 1461 1462 1463 1463 1463 1463 1463
1347 1342 1339 1342 1341 1345 1349 1353 1358 1362 1368 1373 1380 1386 1390 1394 1399 1406 1414 1418 1424 1428 1432 1441 1444 1447 1448 1450 1452 1454 1456 1458 1460 1461 1460 1460 1461 1462 1457 1451 1452 1454 1455 1456 1457 1458 1459 1459 1459 1460 1459 1459 1458 1458
1344 1347 1344 1342 1345 1349 1352 1357 1359 1366 1372 1374 1381 1389 1395 1403 1407 1411 1415 1420 1425 1429 1431 1438 1444 1448 1449 1451 1453 1454 1456 1457 1459 1459 1460 1458 1460 1459 1453 1448 1451 1453 1454 1455 1456 1456 1457 1457 1456 1455 1455 1454 1453 1452
1353 1353 1352 1353 1356 1359 1363 1366 1370 1375 1379 1384 1390 1396 1403 1407 1411 1417 1420 1424 1427 1431 1432 1436 1438 1442 1448 1451 1453 1455 1456 1457 1459 1457 1457 1458 1452 1452 1446 1448 1450 1452 1454 1455 1455 1455 1454 1454 1452 1451 1450 1448 1447 1445
1358 1360 1362 1364 1365 1368 1372 1375 1379 1382 1387 1392 1398 1402 1408 1412 1416 1421 1426 1427 1428 1429 1432 1435 1438 1442 1447 1449 1452 1455 1456 1454 1456 1455 1456 1453 1444 1444 1447 1448 1450 1452 1452 1452 1452 1451 1451 1449 1448 1446 1444 1442 1440 1437
1363 1367 1370 1371 1373 1376 1379 1383 1387 1391 1394 1398 1400 1407 1412 1416 1419 1422 1426 1428 1432 1433 1434 1437 1439 1441 1447 1447 1449 1454 1454 1456 1455 1453 1453 1445 1439 1442 1446 1449 1450 1450 1451 1451 1450 1448 1447 1445 1442 1438 1435 1433 1431 1428
1369 1373 1376 1378 1381 1384 1387 1390 1393 1396 1399 1401 1403 1411 1417 1419 1421 1425 1432 1434 1432 1431 1437 1437 1441 1442 1446 1447 1450 1454 1453 1456 1453 1455 1453 1442 1440 1443 1445 1447 1448 1449 1448 1447 1445 1443 1440 1437 1434 1431 1427 1424 1421 1418
1375 1379 1383 1385 1388 1390 1393 1396 1399 1401 1403 1406 1409 1414 1418 1423 1425 1423 1431 1432 1432 1434 1436 1438 1442 1443 1446 1448 1451 1452 1453 1452 1454 1452 1443 1436 1439 1443 1445 1446 1446 1445 1443 1441 1438 1436 1432 1428 1426 1422 1418 1414 1411 1407
1381 1385 1388 1391 1393 1396 1398 1401 1403 1405 1407 1408 1412 1421 1423 1423 1425 1425 1426 1427 1433 1434 1436 1438 1441 1442 1446 1448 1451 1450 1453 1454 1450 1449 1440 1435 1439 1442 1443 1443 1441 1438 1437 1434 1431 1427 1424 1420 1416 1412 1409 1406 1402 1398
1386 1390 1393 1397 1399 1401 1403 1405 1407 1408 1409 1412 1415 1422 1426 1429 1430 1430 1430 1432 1433 1435 1437 1439 1442 1444 1447 1450 1451 1452 1453 1448 1442 1435 1433 1436 1439 1439 1439 1438 1436 1434 1431 1427 1423 1419 1416 1412 1408 1402 1400 1397 1394 1390
1390 1394 1399 1401 1404 1406 1407 1409 1410 1410 1413 1417 1422 1426 1429 1428 1432 1432 1433 1435 1435 1437 1438 1440 1442 1444 1446 1447 1449 1445 1443 1439 1432 1435 1436 1437 1437 1436 1435 1434 1431 1427 1423 1419 1416 1412 1408 1403 1399 1394 1391 1388 1384 1381
1396 1399 1403 1406 1408 1409 1410 1411 1412 1414 1418 1423 1428 1428 1429 1430 1432 1433 1435 1436 1437 1439 1439 1441 1442 1442 1450 1447 1445 1441 1438 1434 1436 1436 1436 1435 1434 1432 1430 1427 1423 1420 1416 1412 1408 1404 1400 1396 1392 1388 1383 1379 1377 1373
1401 1405 1408 1410 1411 1413 1413 1413 1416 1420 1426 1429 1430 1432 1432 1433 1435 1436 1436 1438 1440 1440 1441 1442 1444 1445 1442 1441 1436 1436 1437 1437 1436 1435 1433 1431 1429 1426 1423 1419 1416 1413 1409 1405 1401 1397 1393 1389 1386 1382 1378 1374 1369 1366
1407 1409 1411 1412 1414 1415 1416 1419 1420 1425 1430 1432 1433 1434 1435 1436 1437 1438 1438 1439 1440 1441 1442 1443 1443 1441 1438 1439 1439 1438 1437 1436 1433 1429 1426 1424 1421 1418 1416 1413 1409 1405 1402 1398 1394 1391 1387 1384 1381 1377 1373 1369 1365 1362
1412 1413 1414 1415 1416 1416 1419 1423 1425 1427 1432 1434 1434 1436 1437 1438 1439 1440 1440 1440 1441 1442 1443 1442 1440 1439 1440 1440 1439 1437 1434 1432 1429 1424 1418 1417 1416 1413 1409 1406 1402 1399 1395 1392 1389 1386 1383 1379 1377 1374 1369 1366 1362 1359
1416 1416 1416 1417 1417 1419 1423 1425 1428 1431 1433 1435 1436 1437 1438 1439 1440 1440 1441 1441 1442 1442 1441 1440 1440 1439 1438 1436 1434 1431 1427 1425 1422 1420 1414 1408 1408 1405 1401 1399 1397 1394 1391 1387 1384 1381 1379 1376 1373 1370 1367 1364 1361 1359
1418 1419 1419 1419 1420 1423 1427 1430 1432 1433 1435 1436 1437 1438 1440 1440 1441 1441 1441 1441 1441 1440 1440 1439 1438 1436 1433 1430 1427 1424 1420 1417 1414 1410 1408 1405 1401 1398 1396 1394 1391 1388 1385 1383 1380 1377 1375 1373 1370 1368 1365 1363 1361 1359
1421 1421 1421 1423 1425 1427 1435 1433 1433 1435 1436 1438 1439 1440 1441 1442 1442 1442 1442 1440 1440 1439 1439 1438 1435 1432 1428 1423 1420 1416 1414 1410 1407 1404 1401 1398 1396 1393 1390 1388 1386 1383 1380 1378 1377 1375 1373 1371 1369 1367 1365 1363 1362 1360
1423 1424 1425 1427 1429 1434 1434 1435 1436 1437 1439 1440 1440 1440 1442 1442 1442 1442 1439 1440 1440 1439 1438 1435 1431 1426 1422 1419 1415 1411 1408 1405 1401 1398 1396 1393 1390 1388 1386 1383 1381 1378 1376 1375 1374 1373 1371 1370 1368 1367 1365 1364 1364 1363
1427 1433 1433 1434 1434 1435 1437 1438 1439 1439 1441 1444 1442 1442 1443 1443 1442 1441 1439 1440 1439 1438 1435 1431 1427 1424 1420 1414 1411 1407 1404 1401 1397 1393 1391 1389 1386 1384 1382 1379 1377 1375 1374 1373 1372 1371 1370 1369 1368 1368 1367 1367 1366 1366
1433 1437 1437 1438 1439 1438 1440 1440 1442 1443 1443 1443 1444 1445 1444 1444 1442 1440 1440 1440 1439 1436 1432 1428 1424 1419 1416 1413 1408 1403 1399 1396 1393 1389 1387 1385 1384 1382 1379 1377 1375 1374 1373 1372 1371 1371 1371 1371 1371 1371 1371 1372 1372 1371
1438 1441 1441 1441 1441 1442 1442 1443 1444 1444 1444 1445 1444 1444 1444 1444 1442 1442 1441 1439 1437 1434 1430 1427 1423 1419 1414 1409 1405 1401 1397 1393 1389 1386 1384 1383 1382 1380 1378 1377 1375 1374 1373 1372 1372 1372 1373 1374 1374 1375 1375 1376 1377 1377
1441 1442 1443 1444 1443 1443 1444 1444 1444 1446 1446 1446 1446 1445 1445 1443 1443 1443 1442 1439 1436 1432 1429 1425 1422 1417 1413 1408 1404 1400 1395 1391 1387 1384 1383 1382 1381 1380 1379 1377 1376 1375 1374 1374 1375 1376 1377 1378 1379 1380 1381 1382 1384 1387
1444 1444 1445 1445 1444 1444 1446 1447 1447 1447 1447 1447 1446 1444 1445 1444 1444 1443 1441 1438 1434 1431 1427 1424 1421 1417 1413 1409 1405 1401 1396 1392 1389 1386 1385 1384 1382 1382 1380 1379 1379 1378 1378 1379 1380 1381 1383 1385 1386 1388 1390 1392 1394 1397
1447 1446 1446 1446 1446 1447 1448 1448 1448 1447 1447 1447 1447 1446 1445 1444 1444 1443 1441 1437 1434 1430 1428 1425 1421 1417 1414 1410 1406 1403 1399 1396 1392 1390 1388 1386 1385 1385 1384 1383 1383 1383 1384 1385 1386 1388 1391 1393 1396 1398 1400 1402 1405 1406
1448 1447 1447 1447 1448 1449 1448 1447 1447 1446 1446 1446 1446 1446 1445 1444 1444 1443 1441 1438 1435 1432 1429 1426 1423 1420 1416 1413 1409 1405 1403 1401 1397 1395 1393 1391 1390 1390 1390 1389 1390 1390 1391 1393 1395 1397 1399 1402 1405 1407 1409 1411 1414 1417
1449 1448 1449 1448 1449 1449 1448 1448 1447 1447 1446 1446 1446 1446 1446 1445 1445 1444 1442 1439 1436 1433 1431 1429 1426 1423 1421 1418 1415 1413 1411 1407 1404 1401 1399 1398 1397 1397 1397 1398 1398 1399 1401 1402 1405 1407 1409 1411 1413 1416 1418 1420 1423 1425
1450 1449 1449 1449 1449 1449 1449 1448 1447 1447 1447 1447 1447 1446 1446 1446 1447 1447 1444 1441 1439 1436 1433 1432 1430 1427 1425 1422 1420 1417 1415 1412 1411 1409 1407 1406 1405 1405 1406 1406 1408 1409 1411 1412 1414 1416 1418 1420 1422 1424 1427 1429 1431 1433